FLOCK 4Y-29 (55030 NORAD) Tracking and Keplerian Element Data

This shows tracking and keplerian element data for the satellite.

Feedback or suggestion? Click here.




ElementValue
Catalog55030
NameFLOCK 4Y-29
Epoch Orbit1233
Epoch Day84.11182674
Epoch Year2023
RAAN144.9356
Inclination97.485
Eccentricity0.0010178
Argument of Perigee299.8306
Mean Anonmoly60.1914
Mean Motion15.1596091
Decay Rate0.00018638
L11 55030U 23001X 23084.11182674 .00018638 00000+0 97206-3 0 9998
L22 55030 97.4850 144.9356 0010178 299.8306 60.1914 15.15960910 12331



Live tracking and technical data element details for FLOCK 4Y-29 (NORAD 55030). FLOCK 4Y-29 can be tracked NOW for your location showing map with azimuth and elevation plus other details from your city location.







IsCatalogInMostPopularTable: catalog: 55030, numindb: 11
Update: records affected: 1



GetName: 55030 FLOCK 4Y-29

Hit Count: updated at: Mon, 27 Mar 2023 07:46:25 GMT